Location: Namasale
(1.5000°N, 32.6167°E)
Time: 05:00:56
(UTC+00:00)

Vanguard 1 - All Passes

Search period start: 14 April 2021 00:00
Search period end: 24 April 2021 00:00
Orbit: 648 x 3834 km, 34.3° (Epoch: 12 April)

Date Brightness Start Highest point End Pass type
(mag) Time Alt. Az. Time Alt. Az. Time Alt. Az.
14 Apr - 00:28:46 10° SW 00:30:14 11° SW 00:31:34 10° SSW night (unlit)
14 Apr - 07:37:21 10° S 07:43:19 25° SE 07:52:27 10° E daylight
14 Apr - 09:55:01 10° WSW 10:04:42 83° NW 10:23:14 10° NE daylight
14 Apr - 12:18:05 10° W 12:31:13 36° NNW 12:50:47 10° NE daylight
14 Apr - 14:48:40 10° NW 15:03:56 22° N 15:20:10 10° NE daylight
14 Apr - 17:20:40 10° NW 17:38:37 27° NNE 17:52:18 10° ENE visible
14 Apr - 19:48:31 10° NW 20:07:36 54° NNE 20:18:17 10° ESE visible
14 Apr - 22:17:01 10° WNW 22:30:41 51° SW 22:38:08 10° SSE visible
15 Apr - 07:57:12 10° SSW 08:04:00 37° SE 08:15:37 10° ENE daylight
15 Apr - 10:16:08 10° WSW 10:26:08 64° NNW 10:44:48 10° NE daylight
15 Apr - 12:40:43 10° WNW 12:53:56 30° NNW 13:12:22 10° NE daylight
15 Apr - 15:12:15 10° NW 15:27:51 22° N 15:43:30 10° NE daylight
15 Apr - 17:42:29 10° NW 18:01:36 32° NNE 18:15:18 10° ENE visible
15 Apr - 20:09:58 10° NW 20:29:16 69° NNE 20:39:37 10° ESE visible
15 Apr - 22:39:42 10° WNW 22:51:23 34° SW 22:58:18 10° SSE night (unlit)
16 Apr - 08:17:28 10° SW 08:24:42 55° SE 08:38:08 10° ENE daylight
16 Apr - 10:37:32 10° W 10:47:52 50° NNW 11:06:12 10° NE daylight
16 Apr - 13:03:46 10° WNW 13:17:00 25° NNW 13:34:18 10° NE daylight
16 Apr - 15:35:20 10° NW 15:51:44 23° N 16:07:15 10° NE daylight
16 Apr - 18:04:00 10° NW 18:24:15 39° NNE 18:37:50 10° E visible
16 Apr - 20:31:36 10° NW 20:50:39 88° NE 21:00:38 10° SE visible
16 Apr - 23:03:06 10° W 23:12:06 23° SW 23:18:05 10° S night (unlit)
17 Apr - 06:23:05 10° SSE 06:25:18 12° SE 06:27:51 10° ESE daylight
17 Apr - 08:38:00 10° SW 08:45:33 78° SE 09:00:10 10° ENE daylight
17 Apr - 10:59:19 10° W 11:09:52 39° NNW 11:27:32 10° NE daylight
17 Apr - 13:27:08 10° NW 13:40:24 23° N 13:56:46 10° NE daylight
17 Apr - 15:57:50 10° NW 16:15:24 25° NNE 16:31:07 10° ENE visible
17 Apr - 18:25:23 10° NW 18:46:33 48° NNE 18:59:56 10° E visible
17 Apr - 20:53:31 10° WNW 21:11:46 71° SW 21:21:23 10° SE visible
17 Apr - 23:27:44 10° WSW 23:32:57 14° SW 23:37:03 10° SSW night (unlit)
18 Apr - 06:41:30 10° S 06:46:04 20° SE 06:52:30 10° E daylight
18 Apr - 08:58:49 10° WSW 09:06:39 77° NW 09:21:51 10° NE daylight
18 Apr - 11:21:30 10° WNW 11:32:12 31° NNW 11:48:56 10° NE daylight
18 Apr - 13:50:31 10° NW 14:04:06 21° N 14:19:56 10° NE daylight
18 Apr - 16:19:48 10° NW 16:38:46 29° NNE 16:54:43 10° ENE visible
18 Apr - 18:46:46 10° NW 19:08:34 59° NNE 19:21:38 10° ESE visible
18 Apr - 21:15:50 10° WNW 21:32:41 53° SW 21:41:54 10° SSE visible
19 Apr - 07:01:14 10° SSW 07:06:42 33° SE 07:15:30 10° ENE daylight
19 Apr - 09:19:56 10° WSW 09:28:02 57° NNW 09:43:17 10° NE daylight
19 Apr - 11:44:06 10° WNW 11:54:50 26° NNW 12:10:33 10° NE daylight
19 Apr - 14:13:36 10° NW 14:27:56 21° N 14:43:48 10° NE daylight
19 Apr - 16:41:24 10° NW 17:01:45 35° NNE 17:17:52 10° E visible
19 Apr - 19:08:15 10° NW 19:30:17 74° NE 19:42:58 10° ESE visible
19 Apr - 21:38:40 10° WNW 21:53:30 38° SW 22:02:09 10° SSE visible
20 Apr - 07:21:26 10° SW 07:27:21 53° SE 07:37:49 10° ENE daylight
20 Apr - 09:41:23 10° W 09:49:42 42° NNW 10:04:32 10° NE daylight
20 Apr - 12:07:04 10° NW 12:17:48 22° N 12:32:34 10° NE daylight
20 Apr - 14:36:10 10° NW 14:51:42 23° NNE 15:08:06 10° ENE daylight
20 Apr - 17:02:47 10° NW 17:24:23 42° NNE 17:40:32 10° E visible
20 Apr - 19:29:55 10° NW 19:51:44 89° SW 20:04:02 10° SE visible
20 Apr - 22:02:12 10° W 22:14:21 27° SW 22:22:05 10° S visible
21 Apr - 07:41:59 10° SW 07:48:10 81° SE 07:59:40 10° NE daylight
21 Apr - 10:03:13 10° W 10:11:40 33° NNW 10:25:44 10° NE daylight
21 Apr - 12:30:13 10° NW 12:41:05 20° N 12:55:14 10° NE daylight
21 Apr - 14:58:12 10° NNW 15:15:17 26° NNE 15:32:23 10° ENE daylight
21 Apr - 17:24:04 10° NW 17:46:43 51° NNE 18:02:43 10° ESE visible
21 Apr - 19:51:52 10° WNW 20:12:56 71° SW 20:24:49 10° SE visible
21 Apr - 22:26:43 10° W 22:35:20 18° SW 22:41:32 10° S visible
22 Apr - 05:45:41 10° S 05:49:06 17° SE 05:53:28 10° E daylight
22 Apr - 08:02:50 10° WSW 08:09:13 69° NW 08:21:08 10° NE daylight
22 Apr - 10:25:28 10° WNW 10:33:53 26° NNW 10:46:58 10° NNE daylight
22 Apr - 12:53:14 10° NW 13:04:37 19° N 13:18:46 10° NE daylight
22 Apr - 15:19:49 10° NNW 15:38:31 30° NNE 15:56:19 10° ENE daylight
22 Apr - 17:45:23 10° NW 18:08:44 63° NE 18:24:28 10° ESE visible
22 Apr - 20:14:14 10° WNW 20:34:00 55° SW 20:45:22 10° SE visible
22 Apr - 22:53:22 10° SW 22:56:35 11° SW 22:59:24 10° SSW night (unlit)
23 Apr - 06:05:16 10° SSW 06:09:46 30° SE 06:16:21 10° ENE daylight
23 Apr - 08:24:01 10° WSW 08:30:34 48° NNW 08:42:21 10° NE daylight
23 Apr - 10:48:08 10° NW 10:56:25 21° N 11:08:24 10° NNE daylight
23 Apr - 13:15:51 10° NNW 13:28:14 20° N 13:43:09 10° NE daylight
23 Apr - 15:41:09 10° NW 16:01:24 37° NNE 16:19:42 10° E visible
23 Apr - 18:06:48 10° NW 18:30:29 77° NE 18:45:52 10° ESE visible
23 Apr - 20:37:08 10° WNW 20:55:00 41° SW 21:05:43 10° SSE visible
